map of SNZ home
SNZ - Airport
Location
City:  Rio de Janeiro, Rio de Janeiro, Brazil
Name:Santa Cruz AFB
Old (Alt.):Bartolomeu de Gusmão Airport
ICAO:SBSC
IATA:SNZ

Details
Type:Airport (Aerodrome, Airfield)
Use:Military
Latitude:22°55'56"S (-22.932349)
Longitude:43°43'09"W (-43.719091)
Datum:WGS 1984
Elevation:10 ft (3 m)
Variation:22.65°W (WMM2015 magnetic declination)
-0.10° annual change
Runways:1
Longest:8986 × 148 ft (2739 × 45 m), paved

Time
Time Zone:UTC-3 (DST-2)
Local Time:

Weather
METAR:SBSC 180000Z 20002KT 5000 BR OVC020 21/18 Q1022
TAF:SBSC 172100Z 1800/1812 24005KT 9999 BKN020 TN18/1809Z TX21/1812Z
BECMG 1800/1802 05005KT
BECMG 1802/1804 0600 FG BKN002
BECMG 1810/1812 8000 NSW SCT008
RMK PDJ

Related Locations
Nearby:
Farthest:IWO: 12101 mi / 19475 km
Iwo Jima [Iwo Jima AB], Iwo Jima Island, 13, JP

Find:

   beyond  
but within

Other Information
Maps:
NOTAMs:
Links:
Sources:

  
  • flag of Brazil
  • flag of Rio de Janeiro
  • flag of Rio de Janeiro
  

Sectional Chart

Flight Planning
at skyvector.com

Satellite Image

Google Maps Satellite view

 

Copyright © 2004-2018 Karl L. Swartz. All rights reserved.
The Great Circle Mapper name and logo are trademarks of the Great Circle Mapper.
All other trademarks mentioned herein belong to their respective owners.
Please see credits for attibutions and further copyright information.

  Follow gcmap on Facebook Follow gcmap on Twitter Follow gcmap on Google+ GCmap on LinkedIn

hCard Microformat

Geo Microformat